Location: ????
(30.2663°N, 31.2484°E)
Time: 21:40:26
(UTC+00:00)

COSMOS 2406 - Pass Details

Date: 27 September 2022
Orbit: 843 x 863 km, 71.0° (Epoch: 08 December)

Event Time Altitude Azimuth Distance (km) Brightness Sun altitude
Exits shadow 01:15:59 17° 147° (SSE) 2,009 5.2 -32.7°
Drops below altitude 10° 01:23:46 10° 46° (NE) 2,463 6.3 -31.1°
Enters shadow 02:35:03 -45° 205° (SSW) 10,219 8.6 -16.1°
Maximum altitude 03:03:12 31° 296° (WNW) 1,453 4.0 -10.1°
